ARIANE 5 R/B, 40734

Orbit data source: Space-Track

ARIANE 5 R/B, 40734 is space debris in HEO originally from a launch on Wed, 15 Jul 2015 UTC launched from the French Guiana (FRGUI). Debris objects in space refer to the collection of defunct objects orbiting the Earth. Examples of debris include non-operational satellites, rocket bodies, and fragments generated from explosions, collisions, or faulty payload assembly.

Loading next visibility...
Identifier
40734, 2015-034C
Orbit
HEO
Country
Flag of FRFR
Related business
Manufacturer
Airbus Safran
Mission
Spacecraft
Bus & Motor
ESC-A, Unknown motor
Mass
~5,000 kg wet, ~5,000 kg dry
Launch date (UTC)
2015-07-15 (10 years ago)
Launch vehicle
Unknown
Launch site
French Guiana (FRGUI)
Object type
Payload
Rocket body
Debris
Shape & HBR
Cyl + 1 Nozzle, 3.5 m
Radar Cross Section
41.627 m², Large (>1 m²)

Expand to show TLE details & history
Last TLE update: 2 days ago

TLE from 2 days ago
0 ARIANE 5 R/B
1 40734U 15034C   25258.31085254  .00002970  00000-0  15137-2 0  9998
2 40734   4.2567 317.1344 7180350  50.5786 353.4209  2.39175638 86152
Epoch: 2025-09-15T07:27Z
TLE epoch observation values (Epoch: 2025-09-15T07:27:37.659Z)
Latitude
-0.00012°
Longitude
-149.51113°
Altitude
1,470.282 km
Speed
9.202 km/s
True Right ascension
21h 07m 39s
True Declination
0° 00' 00"
Sunlit
Object was in full shadow at epoch
Visualization orbit readout
Latitude
Unknown
Longitude
Unknown
Altitude
Unknown
Speed
Unknown
Apparent Right ascension
Unknown
Apparent Declination
Unknown
Sunlit
N/A
Visualization observer readout
Local Sidereal Time
12:40:36
Azimuth
Unknown
Elevation
Unknown
Doppler factor
Unknown
Orbital elements
Apogee altitude
34,209.18 km
Perigee altitude
283.079 km
Semi-major axis
23,624.267 km
Eccentricity
0.71804
Inclination
4.2567°
RAAN
317.1344°
Arg. of periapsis
50.5786°
True anomaly
308.7944°
Mean anomaly
353.4209°
Eccentric anomaly
338.02826°
Mean motion
0.59773 °/min
Orbital period
602.28 mins
BSTAR
0.0015137
Loading maneuver chart data...
Computing Atmospheric mass density...
Loading historical data...
Loading historical data...
Loading historical data...
Loading historical data...
Loading historical data...
Loading historical data...
Loading historical data...

Documentation

Showing up to 5 results
|